Regional Weather Roundup
Issued by NWS Grand Forks, ND

Home | Current Version | Previous Version | Text Only | Print | Product List | Glossary On
Versions: 1 2 3 4 5 6 7 8 9 10 11 12 13 14 15 16 17 18 19 20 21 22 23 24 25 26 27 28 29 30 31 32 33 34 35 36 37 38 39 40 41 42 43 44 45 46 47 48 49 50
000
ASUS43 KFGF 041831
RWRFGF
PRAIRIE TO PINES  WEATHER ROUNDUP
NATIONAL WEATHER SERVICE EASTERN NORTH DAKOTA/GRAND FORKS ND
100 PM CDT MON MAY 04 2015

 **SATELLITE DATA USED TO AUGMENT SKY COVER AT AUTOMATED STATIONS**
 *****  WEATHER ACROSS EASTERN NORTH DAKOTA  *****

CITY           SKY/WX    TMP DP  RH WIND       PRES   REMARKS
GRAND FORKS    MOSUNNY   65  29  25 CALM      30.22F
6HR MIN TEMP:  34; 6HR MAX TEMP:  65;

GRAND FRKS AFB MOSUNNY   65  29  25 SW6       30.22F
GRAND FRKS NWS   N/A     66 N/A N/A SW7         N/A
DEVILS LAKE    SUNNY     63  27  25 S6        30.21F
6HR MIN TEMP:  34; 6HR MAX TEMP:  63;

FARGO          PTSUNNY   64  29  26 CALM      30.22F
WAHPETON ARPT  MOCLDY    64  28  25 NE5       30.22F
$$

 ***** WEATHER ACROSS CENTRAL AND WESTERN NORTH DAKOTA  *****

CITY           SKY/WX    TMP DP  RH WIND       PRES   REMARKS
BISMARCK       MOSUNNY   66  24  20 SW6       30.21F
6HR MIN TEMP:  34; 6HR MAX TEMP:  66;

MINOT          SUNNY     66  22  18 SE14G20   30.17F
6HR MIN TEMP:  35; 6HR MAX TEMP:  66;

JAMESTOWN      MOSUNNY   63  25  23 VRB3G16   30.22F
6HR MIN TEMP:  32; 6HR MAX TEMP:  64;

MINOT AFB      SUNNY     67  25  19 SW10      30.17F
GARRISON         N/A     66  25  21 S13       30.18F
WILLISTON      SUNNY     69  26  20 S15       30.12F
6HR MIN TEMP:  32; 6HR MAX TEMP:  69;

DICKINSON      SUNNY     63  32  31 S22G30    30.15F
6HR MIN TEMP:  33; 6HR MAX TEMP:  63;

HETTINGER      PTSUNNY   55  35  47 S16G24    30.21F
6HR MIN TEMP:  39; 6HR MAX TEMP:  56;

$$

 *****  OTHER AIRPORT OBSERVATIONS IN OUR AREA  *****

CITY           SKY/WX    TMP DP  RH WIND       PRES   REMARKS
WALHALLA       FAIR      64  28  25 SW7       30.20S
GRAFTON AIRPOR FAIR      64  28  25 SW6       30.22F HAZE
VALLEY CITY AR FAIR      63  28  27 SW3       30.23F
CANDO          FAIR      64  25  22 SW7       30.21S
CAVALIER APRT  FAIR      64  28  25 W10       30.20S
GWINNER        CLEAR     64  28  25 W3        30.23F
SHEYENNE NWR     N/A     67  30  25 CALM      29.95S
ROLLA          NOT AVBL
 ***** THE ABOVE OBSERVATIONS ARE NON NWS ARE NOT QUALITY
       CONTROLLED AND MAY MIS-REPORT RAIN FOR SNOW...
$$

  *****  WEATHER ACROSS NORTHERN MINNESOTA  *****

CITY           SKY/WX    TMP DP  RH WIND       PRES   REMARKS
FLAG ISLAND    PTSUNNY   50  36  57 SE8       30.21F
WARROAD        MOSUNNY   55  36  47 E9        30.22S
ROSEAU         MOSUNNY   63  27  25 W7G17     30.22S
HALLOCK        PTSUNNY   63  27  25 NW7       30.21S
THF RVR FALLS  MOSUNNY   63  27  25 NW6       30.23S
6HR MIN TEMP:  39; 6HR MAX TEMP:  61;

BAUDETTE       SUNNY     60  29  30 CALM      30.23S
6HR MIN TEMP:  37; 6HR MAX TEMP:  60;

WASKISH        SUNNY     61  34  36 CALM      30.24S
CROOKSTON      PTSUNNY   64  30  27 CALM      30.23S
$$
  *****  WEATHER ACROSS CENTRAL AND WEST MINNESOTA  *****

CITY           SKY/WX    TMP DP  RH WIND       PRES   REMARKS
FOSSTON        SUNNY     63  27  25 NW5       30.24S
BEMIDJI        SUNNY     61  28  28 NE3       30.23F
PARK RAPIDS    PTSUNNY   62  31  31 VRB6      30.23S
6HR MIN TEMP:  39; 6HR MAX TEMP:  62;

ELBOW LAKE     FAIR      65  32  29 NW7       30.21S
6HR MIN TEMP:  46; 6HR MAX TEMP:  65;

WADENA         PTSUNNY   61  36  39 N10       30.22F
DETROIT LAKES  PTSUNNY   61  32  33 N6        30.24F
MOORHEAD       PTSUNNY   63  27  25 W6        30.23S
FERGUS FALLS   PTSUNNY   64  34  32 CALM      30.22F
MORRIS MN      SUNNY     70  28  21 NE5       30.20S
STAPLES        PTSUNNY   61  30  31 N7        30.22S
$$
  *****  WEATHER ELSEWHERE ACROSS MINNESOTA  *****

CITY           SKY/WX    TMP DP  RH WIND       PRES   REMARKS
DULUTH         PTSUNNY   64  19  17 NW10G18   30.19S
6HR MIN TEMP:  45; 6HR MAX TEMP:  63;

INTRNTL FALLS  MOSUNNY   59  29  31 VRB5      30.21S
6HR MIN TEMP:  38; 6HR MAX TEMP:  60;

ELY            SUNNY     61  23  23 NW10G18   30.19S
CLOQUET        PTSUNNY   63  12  14 NW12G18   30.20S
WHEATON        MOSUNNY   63  28  27 CALM      30.23S
BRAINERD       PTSUNNY   62  32  32 N8G20     30.23S
6HR MIN TEMP:  39; 6HR MAX TEMP:  62;

HIBBING        SUNNY     63  20  19 NW13G18   30.21S
6HR MIN TEMP:  37; 6HR MAX TEMP:  63;

ALEXANDRIA     MOSUNNY   63  30  28 MISG      30.23S
6HR MIN TEMP:  47; 6HR MAX TEMP:  64;

SAINT CLOUD    SUNNY     67  31  26 VRB7      30.20S
6HR MIN TEMP:  41; 6HR MAX TEMP:  67;

MINNEAPOLIS    MOSUNNY   67  31  26 NE12G18   30.19S
6HR MIN TEMP:  52; 6HR MAX TEMP:  67;

$$

  *****  WEATHER ACROSS SOUTH DAKOTA  *****

CITY           SKY/WX    TMP DP  RH WIND       PRES   REMARKS
SIOUX FALLS    PTSUNNY   70  30  22 E16       30.16F
6HR MIN TEMP:  47; 6HR MAX TEMP:  70;

BROOKINGS      SUNNY     66  28  24 E10G21    30.19F
WATERTOWN      MOSUNNY   66  26  22 NE10      30.20F
6HR MIN TEMP:  40; 6HR MAX TEMP:  67;

HURON          PTSUNNY   70  23  17 NE13      30.18F
6HR MIN TEMP:  34; 6HR MAX TEMP:  71;

SISSETON         N/A     67  24  19 VRB3      30.21S
ABERDEEN       CLOUDY    67  22  18 N7        30.21F
6HR MIN TEMP:  31; 6HR MAX TEMP:  68;

MITCHELL       MOSUNNY   71  26  18 E10       30.16F
PIERRE         CLOUDY    63  26  24 E7        30.21S
6HR MIN TEMP:  42; 6HR MAX TEMP:  64;

MOBRIDGE       CLOUDY    63  28  26 SW6       30.20F
RAPID CITY     CLOUDY    48  39  71 S5        30.23R
6HR MIN TEMP:  44; 6HR MAX TEMP:  49; 6HR PCP:  0.19;

$$

  *****  SOME WEATHER IN NEARBY STATES *****

CITY           SKY/WX    TMP DP  RH WIND       PRES   REMARKS
GLASGOW MT     SUNNY     68  36  30 S18G30    30.01F
6HR MIN TEMP:  39; 6HR MAX TEMP:  68; 6HR PCP: TRACE;

GREAT FALLS MT SUNNY     64  37  36 CALM      29.91F
6HR MIN TEMP:  33; 6HR MAX TEMP:  65;

CHEYENNE WY    LGT RAIN  51  41  68 S14       30.15S
6HR MIN TEMP:  45; 6HR MAX TEMP:  52; 6HR PCP: TRACE;

SCOTTSBLUFF NE CLOUDY    53  35  50 E15       30.17S
6HR MIN TEMP:  48; 6HR MAX TEMP:  54; 6HR PCP:  0.05;

OMAHA NE       LGT RAIN  65  56  72 NE7       30.08R
6HR MIN TEMP:  58; 6HR MAX TEMP:  67; 6HR PCP: TRACE;

DES MOINES IA  CLOUDY    70  58  65 NE9       30.10R
6HR MIN TEMP:  62; 6HR MAX TEMP:  71;

DAVENPORT IA   PTSUNNY   70  61  73 NE9       30.11F
6HR MIN TEMP:  60; 6HR MAX TEMP:  71;

CHICAGO IL     PTSUNNY   71  58  63 NW5       30.11R
6HR MIN TEMP:  59; 6HR MAX TEMP:  70;

EAU CLAIRE WI  SUNNY     67  31  26 NW8       30.17S
6HR MIN TEMP:  53; 6HR MAX TEMP:  68;

LA CROSSE WI   PTSUNNY   72  38  29 VRB7      30.14S
6HR MIN TEMP:  58; 6HR MAX TEMP:  73;

$$

  *****  SOME NATIONAL WEATHER *****

CITY           SKY/WX    TMP DP  RH WIND       PRES   REMARKS
LA GUARDIA NY  MOSUNNY   80  46  30 S14       30.17S
6HR MIN TEMP:  56; 6HR MAX TEMP:  82;

RALEIGH NC     MOSUNNY   80  58  46 SW14G20   30.30F
6HR MIN TEMP:  60; 6HR MAX TEMP:  80;

ATLANTA GA     MOSUNNY   80  49  33 VRB6      30.30F
6HR MIN TEMP:  62; 6HR MAX TEMP:  80;

NEW ORLEANS LA CLOUDY    79  60  52 E14       30.19R
6HR MIN TEMP:  70; 6HR MAX TEMP:  81; 6HR PCP:  0.02;

OKLAHOMA CITY  PTSUNNY   80  63  55 S17G24    30.06F
6HR MIN TEMP:  61; 6HR MAX TEMP:  80;

ALBUQUERQUE NM MOSUNNY   71  38  29 W5        30.00F
6HR MIN TEMP:  56; 6HR MAX TEMP:  74;

SALT LAKE CITY MOSUNNY   72  38  29 VRB3      29.93F
6HR MIN TEMP:  57; 6HR MAX TEMP:  73;

LOS ANGELES CA PTSUNNY   61  51  70 SW7       29.99R
6HR MIN TEMP:  56; 6HR MAX TEMP:  61;




USA.gov is the U.S. government's official web portal to all federal, state and local government web resources and services.